,,Stat6,,Stat2,,Stat8,,Stat9,,Stat10,,Wind1,,Wind1,
time,status,PA1M_AVG,status,PR1M_SUM,status,RH1M_AVG,status,SR1M_AVG,status,TA1M_AVG,status,W1dAve1m,status,W1sAve1m,
2008-04-30, 00:00:00,VALID,917.636,VALID,0,VALID,100,VALID,-0.0169808,VALID,20.9113,VALID,359,VALID,0,
2008-04-30, 00:01:00,VALID,917.629,VALID,0,VALID,100,VALID,-0.0509425,VALID,20.9276,VALID,359,VALID,0,
2008-04-30, 00:02:01,VALID,917.605,VALID,0,VALID,100,VALID,0,VALID,20.9273,VALID,359,VALID,0,
2008-04-30, 00:03:00,VALID,917.585,VALID,0,VALID,100,VALID,-0.0339617,VALID,20.9338,VALID,359,VALID,0,
2008-04-30, 00:04:00,VALID,917.556,VALID,0,VALID,100,VALID,0.0169808,VALID,20.9665,VALID,359,VALID,0,
2008-04-30, 00:05:00,VALID,917.529,VALID,0,VALID,100,VALID,0,VALID,20.9633,VALID,359,VALID,0,
2008-04-30, 00:06:00,VALID,917.504,VALID,0,VALID,100,VALID,0,VALID,20.9533,VALID,359,VALID,0,
2008-04-30, 00:07:00,VALID,917.491,VALID,0,VALID,100,VALID,-0.0339617,VALID,20.9284,VALID,360,VALID,0,
2008-04-30, 00:08:00,VALID,917.493,VALID,0,VALID,100,VALID,-0.0509425,VALID,20.9159,VALID,52,VALID,0,
2008-04-30, 00:09:01,VALID,917.498,VALID,0,VALID,100,VALID,-0.101885,VALID,20.9059,VALID,75,VALID,0,
2008-04-30, 00:10:00,VALID,917.502,VALID,0,VALID,100,VALID,-0.0849042,VALID,20.9056,VALID,79,VALID,0.00133384,
2008-04-30, 00:11:01,VALID,917.523,VALID,0,VALID,100,VALID,-0.101885,VALID,20.8899,VALID,82,VALID,0,
2008-04-30, 00:12:01,VALID,917.532,VALID,0,VALID,100,VALID,-0.101885,VALID,20.8737,VALID,82,VALID,0,
2008-04-30, 00:13:01,VALID,917.529,VALID,0,VALID,100,VALID,-0.0849042,VALID,20.8672,VALID,82,VALID,0,
2008-04-30, 00:14:00,VALID,917.534,VALID,0,VALID,100,VALID,-0.0849042,VALID,20.861,VALID,82,VALID,0,
2008-04-30, 00:15:01,VALID,917.532,VALID,0,VALID,100,VALID,-0.101885,VALID,20.8572,VALID,82,VALID,0,
2008-04-30, 00:16:00,VALID,917.5,VALID,0,VALID,100,VALID,-0.101885,VALID,20.8702,VALID,82,VALID,0,
2008-04-30, 00:17:00,VALID,917.482,VALID,0,VALID,100,VALID,-0.0679233,VALID,20.861,VALID,82,VALID,0,
2008-04-30, 00:18:00,VALID,917.454,VALID,0,VALID,100,VALID,-0.0849042,VALID,20.854,VALID,82,VALID,0,
2008-04-30, 00:19:00,VALID,917.435,VALID,0,VALID,100,VALID,-0.101885,VALID,20.8505,VALID,82,VALID,0,
2008-04-30, 00:20:01,VALID,917.454,VALID,0,VALID,100,VALID,-0.0679233,VALID,20.8542,VALID,82,VALID,0,
2008-04-30, 00:21:00,VALID,917.451,VALID,0,VALID,100,VALID,-0.0509425,VALID,20.8505,VALID,82,VALID,0,
2008-04-30, 00:22:00,VALID,917.437,VALID,0,VALID,100,VALID,-0.0339617,VALID,20.877,VALID,93,VALID,0,
2008-04-30, 00:23:00,VALID,917.437,VALID,0,VALID,100,VALID,-0.0169808,VALID,20.8464,VALID,100,VALID,0,
2008-04-30, 00:24:00,VALID,917.436,VALID,0,VALID,100,VALID,-0.0679233,VALID,20.8077,VALID,100,VALID,0,
2008-04-30, 00:25:01,VALID,917.43,VALID,0,VALID,100,VALID,-0.0169808,VALID,20.7758,VALID,100,VALID,0,
2008-04-30, 00:26:00,VALID,917.411,VALID,0,VALID,100,VALID,-0.0339617,VALID,20.7693,VALID,91,VALID,0,
2008-04-30, 00:27:00,VALID,917.4,VALID,0,VALID,100,VALID,-0.0509425,VALID,20.7563,VALID,88,VALID,0,
2008-04-30, 00:28:00,VALID,917.391,VALID,0,VALID,100,VALID,-0.0849042,VALID,20.7498,VALID,88,VALID,0,
2008-04-30, 00:29:01,VALID,917.361,VALID,0,VALID,100,VALID,-0.101885,VALID,20.7309,VALID,88,VALID,0,
2008-04-30, 00:30:00,VALID,917.351,VALID,0,VALID,100,VALID,-0.0849042,VALID,20.7246,VALID,88,VALID,0.0948401,
2008-04-30, 00:31:00,VALID,917.344,VALID,0,VALID,100,VALID,-0.101885,VALID,20.7182,VALID,88,VALID,0,
2008-04-30, 00:32:00,VALID,917.337,VALID,0,VALID,100,VALID,-0.0509425,VALID,20.7046,VALID,88,VALID,0,
2008-04-30, 00:33:00,VALID,917.32,VALID,0,VALID,100,VALID,-0.0339617,VALID,20.6911,VALID,88,VALID,0,
2008-04-30, 00:34:01,VALID,917.308,VALID,0,VALID,100,VALID,-0.0849042,VALID,20.6784,VALID,88,VALID,0,
2008-04-30, 00:35:00,VALID,917.286,VALID,0,VALID,100,VALID,-0.101885,VALID,20.6757,VALID,88,VALID,0,
2008-04-30, 00:36:00,VALID,917.264,VALID,0,VALID,100,VALID,-0.101885,VALID,20.6646,VALID,88,VALID,0,
2008-04-30, 00:37:00,VALID,917.23,VALID,0,VALID,100,VALID,-0.101885,VALID,20.6724,VALID,88,VALID,0,
2008-04-30, 00:38:01,VALID,917.216,VALID,0,VALID,100,VALID,-0.101885,VALID,20.6724,VALID,88,VALID,0,
2008-04-30, 00:39:01,VALID,917.19,VALID,0,VALID,100,VALID,-0.0679233,VALID,20.6876,VALID,88,VALID,0,
2008-04-30, 00:40:01,VALID,917.161,VALID,0,VALID,100,VALID,-0.0679233,VALID,20.6917,VALID,88,VALID,0,
2008-04-30, 00:41:00,VALID,917.13,VALID,0,VALID,100,VALID,-0.0849042,VALID,20.7049,VALID,88,VALID,0,
2008-04-30, 00:42:00,VALID,917.108,VALID,0,VALID,100,VALID,-0.101885,VALID,20.6852,VALID,88,VALID,0,
2008-04-30, 00:43:01,VALID,917.09,VALID,0,VALID,100,VALID,-0.0849042,VALID,20.6622,VALID,88,VALID,0,
2008-04-30, 00:44:01,VALID,917.072,VALID,0,VALID,100,VALID,-0.101885,VALID,20.6497,VALID,88,VALID,0,
2008-04-30, 00:45:01,VALID,917.085,VALID,0,VALID,100,VALID,-0.0849042,VALID,20.6332,VALID,88,VALID,0,
2008-04-30, 00:46:01,VALID,917.067,VALID,0,VALID,100,VALID,-0.101885,VALID,20.61,VALID,88,VALID,0,
2008-04-30, 00:47:01,VALID,917.069,VALID,0,VALID,100,VALID,-0.101885,VALID,20.5908,VALID,88,VALID,0,
2008-04-30, 00:48:01,VALID,917.069,VALID,0,VALID,100,VALID,-0.101885,VALID,20.5648,VALID,39,VALID,0,
2008-04-30, 00:49:01,VALID,917.064,VALID,0,VALID,100,VALID,-0.101885,VALID,20.5559,VALID,27,VALID,0,
2008-04-30, 00:50:01,VALID,917.062,VALID,0,VALID,100,VALID,-0.0679233,VALID,20.5783,VALID,26,VALID,0,
2008-04-30, 00:51:00,VALID,917.039,VALID,0,VALID,100,VALID,-0.0509425,VALID,20.5838,VALID,26,VALID,0,
2008-04-30, 00:52:00,VALID,917.033,VALID,0,VALID,100,VALID,-0.0339617,VALID,20.583,VALID,26,VALID,0,
2008-04-30, 00:53:00,VALID,917.001,VALID,0,VALID,100,VALID,0,VALID,20.6157,VALID,26,VALID,0,
2008-04-30, 00:54:00,VALID,916.967,VALID,0,VALID,100,VALID,0.0169808,VALID,20.5995,VALID,26,VALID,0,
2008-04-30, 00:55:00,VALID,916.927,VALID,0,VALID,100,VALID,0.0339617,VALID,20.5862,VALID,26,VALID,0,
2008-04-30, 00:56:00,VALID,916.909,VALID,0,VALID,100,VALID,0.0169808,VALID,20.5925,VALID,26,VALID,0,
2008-04-30, 00:57:00,VALID,916.896,VALID,0,VALID,100,VALID,0.0169808,VALID,20.5832,VALID,26,VALID,0,
2008-04-30, 00:58:00,VALID,916.866,VALID,0,VALID,100,VALID,0,VALID,20.5703,VALID,26,VALID,0,
2008-04-30, 00:59:00,VALID,916.853,VALID,0,VALID,100,VALID,0,VALID,20.5803,VALID,26,VALID,0,
2008-04-30, 01:00:00,VALID,916.826,VALID,0,VALID,100,VALID,0,VALID,20.5668,VALID,26,VALID,0,
2008-04-30, 01:01:00,VALID,916.827,VALID,0,VALID,100,VALID,0.0169808,VALID,20.5735,VALID,26,VALID,0,
2008-04-30, 01:02:00,VALID,916.809,VALID,0,VALID,100,VALID,0,VALID,20.5605,VALID,26,VALID,0,
2008-04-30, 01:03:00,VALID,916.806,VALID,0,VALID,100,VALID,0.0339617,VALID,20.5311,VALID,26,VALID,0,
2008-04-30, 01:04:00,VALID,916.8,VALID,0,VALID,100,VALID,0.0339617,VALID,20.5343,VALID,26,VALID,0,
2008-04-30, 01:05:00,VALID,916.806,VALID,0,VALID,100,VALID,0.0339617,VALID,20.5565,VALID,26,VALID,0,
2008-04-30, 01:06:00,VALID,916.804,VALID,0,VALID,100,VALID,0,VALID,20.5603,VALID,26,VALID,0,
2008-04-30, 01:07:00,VALID,916.811,VALID,0,VALID,100,VALID,0,VALID,20.5513,VALID,26,VALID,0,
2008-04-30, 01:08:00,VALID,916.826,VALID,0,VALID,100,VALID,-0.0339617,VALID,20.5381,VALID,26,VALID,0,
2008-04-30, 01:09:00,VALID,916.841,VALID,0.2,VALID,100,VALID,-0.0849042,VALID,20.5189,VALID,26,VALID,0,
2008-04-30, 01:10:00,VALID,916.836,VALID,0,VALID,100,VALID,-0.0849042,VALID,20.5059,VALID,26,VALID,0,
2008-04-30, 01:11:00,VALID,916.853,VALID,0,VALID,100,VALID,-0.0339617,VALID,20.5124,VALID,26,VALID,0,
2008-04-30, 01:12:00,VALID,916.849,VALID,0,VALID,100,VALID,-0.0849042,VALID,20.5124,VALID,26,VALID,0,
2008-04-30, 01:13:00,VALID,916.835,VALID,0,VALID,100,VALID,-0.0679233,VALID,20.5191,VALID,26,VALID,0,
2008-04-30, 01:14:00,VALID,916.842,VALID,0,VALID,100,VALID,-0.0849042,VALID,20.5264,VALID,26,VALID,0,
2008-04-30, 01:15:00,VALID,916.833,VALID,0,VALID,100,VALID,-0.0509425,VALID,20.4832,VALID,26,VALID,0,
2008-04-30, 01:16:00,VALID,916.826,VALID,0,VALID,100,VALID,-0.0509425,VALID,20.4542,VALID,26,VALID,0,
2008-04-30, 01:17:00,VALID,916.807,VALID,0,VALID,100,VALID,-0.0679233,VALID,20.448,VALID,26,VALID,0,
2008-04-30, 01:18:00,VALID,916.791,VALID,0,VALID,100,VALID,-0.0849042,VALID,20.4515,VALID,26,VALID,0,
2008-04-30, 01:19:00,VALID,916.753,VALID,0,VALID,100,VALID,-0.0679233,VALID,20.441,VALID,26,VALID,0,
2008-04-30, 01:20:00,VALID,916.72,VALID,0,VALID,100,VALID,-0.0679233,VALID,20.4539,VALID,26,VALID,0,
2008-04-30, 01:21:00,VALID,916.701,VALID,0,VALID,100,VALID,-0.0679233,VALID,20.4732,VALID,26,VALID,0,
2008-04-30, 01:22:00,VALID,916.68,VALID,0,VALID,100,VALID,0.0169808,VALID,20.4759,VALID,26,VALID,0,
2008-04-30, 01:23:00,VALID,916.662,VALID,0,VALID,100,VALID,0.0169808,VALID,20.4751,VALID,26,VALID,0,
2008-04-30, 01:24:00,VALID,916.654,VALID,0,VALID,100,VALID,0.0339617,VALID,20.4721,VALID,32,VALID,0.0954241,
2008-04-30, 01:25:00,VALID,916.646,VALID,0,VALID,100,VALID,0.0339617,VALID,20.4562,VALID,39,VALID,0.0419695,
2008-04-30, 01:26:00,VALID,916.646,VALID,0,VALID,100,VALID,0.0339617,VALID,20.4007,VALID,41,VALID,0.0690407,
2008-04-30, 01:27:00,VALID,916.649,VALID,0,VALID,100,VALID,0.0169808,VALID,20.411,VALID,41,VALID,0,
2008-04-30, 01:28:00,VALID,916.664,VALID,0,VALID,100,VALID,0.0509425,VALID,20.3877,VALID,41,VALID,0,
2008-04-30, 01:29:00,VALID,916.671,VALID,0,VALID,100,VALID,0,VALID,20.3518,VALID,40,VALID,0,
2008-04-30, 01:30:00,VALID,916.662,VALID,0,VALID,100,VALID,0.0339617,VALID,20.3388,VALID,40,VALID,0,
2008-04-30, 01:31:00,VALID,916.661,VALID,0,VALID,100,VALID,0.0509425,VALID,20.3228,VALID,40,VALID,0,
2008-04-30, 01:32:00,VALID,916.656,VALID,0,VALID,100,VALID,0.0169808,VALID,20.3201,VALID,40,VALID,0,
2008-04-30, 01:33:00,VALID,916.64,VALID,0,VALID,100,VALID,0.0509425,VALID,20.3296,VALID,40,VALID,0,
2008-04-30, 01:34:00,VALID,916.623,VALID,0,VALID,100,VALID,0.0339617,VALID,20.3493,VALID,40,VALID,0,
2008-04-30, 01:35:00,VALID,916.62,VALID,0,VALID,100,VALID,0.0169808,VALID,20.3823,VALID,41,VALID,0,
2008-04-30, 01:36:00,VALID,916.603,VALID,0,VALID,100,VALID,0.0509425,VALID,20.368,VALID,41,VALID,0,
2008-04-30, 01:37:00,VALID,916.609,VALID,0,VALID,100,VALID,0.0339617,VALID,20.3356,VALID,40,VALID,0,
2008-04-30, 01:38:00,VALID,916.608,VALID,0,VALID,100,VALID,0,VALID,20.3358,VALID,41,VALID,0,
2008-04-30, 01:39:00,VALID,916.62,VALID,0,VALID,100,VALID,0.0509425,VALID,20.3228,VALID,40,VALID,0.00436047,
2008-04-30, 01:40:00,VALID,916.623,VALID,0,VALID,100,VALID,0.0509425,VALID,20.3226,VALID,40,VALID,0.0701349,
2008-04-30, 01:41:00,VALID,916.625,VALID,0,VALID,100,VALID,0,VALID,20.2999,VALID,40,VALID,0.0268111,
2008-04-30, 01:42:00,VALID,916.631,VALID,0,VALID,100,VALID,0,VALID,20.3101,VALID,40,VALID,0,
2008-04-30, 01:43:00,VALID,916.607,VALID,0,VALID,100,VALID,-0.0679233,VALID,20.3076,VALID,40,VALID,0,
2008-04-30, 01:44:00,VALID,916.584,VALID,0,VALID,100,VALID,-0.0169808,VALID,20.3171,VALID,40,VALID,0,
2008-04-30, 01:45:00,VALID,916.573,VALID,0,VALID,100,VALID,-0.0679233,VALID,20.3144,VALID,26,VALID,0,
2008-04-30, 01:46:00,VALID,916.559,VALID,0,VALID,100,VALID,-0.0169808,VALID,20.3271,VALID,26,VALID,0,
2008-04-30, 01:47:00,VALID,916.561,VALID,0,VALID,100,VALID,-0.0339617,VALID,20.3336,VALID,26,VALID,0,
2008-04-30, 01:48:00,VALID,916.529,VALID,0,VALID,100,VALID,-0.0339617,VALID,20.3498,VALID,24,VALID,0,
2008-04-30, 01:49:00,VALID,916.512,VALID,0,VALID,100,VALID,-0.0849042,VALID,20.3728,VALID,24,VALID,0,
2008-04-30, 01:50:00,VALID,916.485,VALID,0,VALID,100,VALID,-0.0679233,VALID,20.3855,VALID,24,VALID,0,
2008-04-30, 01:51:00,VALID,916.482,VALID,0,VALID,100,VALID,-0.0849042,VALID,20.3925,VALID,24,VALID,0,
2008-04-30, 01:52:00,VALID,916.482,VALID,0,VALID,100,VALID,-0.0679233,VALID,20.4025,VALID,24,VALID,0,
2008-04-30, 01:53:00,VALID,916.489,VALID,0,VALID,100,VALID,-0.101885,VALID,20.4123,VALID,24,VALID,0,
2008-04-30, 01:54:00,VALID,916.485,VALID,0,VALID,100,VALID,-0.101885,VALID,20.4158,VALID,24,VALID,0,
2008-04-30, 01:55:00,VALID,916.477,VALID,0,VALID,100,VALID,-0.0679233,VALID,20.4185,VALID,24,VALID,0,
2008-04-30, 01:56:00,VALID,916.437,VALID,0,VALID,100,VALID,-0.0679233,VALID,20.4317,VALID,24,VALID,0,
2008-04-30, 01:57:00,VALID,916.398,VALID,0,VALID,100,VALID,-0.0849042,VALID,20.4417,VALID,24,VALID,0,
2008-04-30, 01:58:00,VALID,916.363,VALID,0,VALID,100,VALID,-0.0679233,VALID,20.4477,VALID,24,VALID,0,
2008-04-30, 01:59:00,VALID,916.327,VALID,0,VALID,100,VALID,-0.101885,VALID,20.448,VALID,24,VALID,0,
2008-04-30, 02:00:00,VALID,916.3,VALID,0,VALID,100,VALID,-0.0679233,VALID,20.4517,VALID,24,VALID,0,
2008-04-30, 02:01:00,VALID,916.298,VALID,0,VALID,100,VALID,-0.101885,VALID,20.4412,VALID,24,VALID,0,
2008-04-30, 02:02:00,VALID,916.314,VALID,0,VALID,100,VALID,-0.0849042,VALID,20.4385,VALID,24,VALID,0,
2008-04-30, 02:03:00,VALID,916.329,VALID,0,VALID,100,VALID,-0.0849042,VALID,20.419,VALID,24,VALID,0,
2008-04-30, 02:04:00,VALID,916.334,VALID,0,VALID,100,VALID,-0.118866,VALID,20.3963,VALID,24,VALID,0,
2008-04-30, 02:05:00,VALID,916.343,VALID,0,VALID,100,VALID,-0.101885,VALID,20.3925,VALID,24,VALID,0,
2008-04-30, 02:06:00,VALID,916.333,VALID,0,VALID,100,VALID,-0.118866,VALID,20.3995,VALID,24,VALID,0.132267,
2008-04-30, 02:07:00,VALID,916.335,VALID,0,VALID,100,VALID,-0.101885,VALID,20.3998,VALID,28,VALID,0.549653,
2008-04-30, 02:08:00,VALID,916.325,VALID,0,VALID,100,VALID,-0.0849042,VALID,20.3641,VALID,30,VALID,0.207919,
2008-04-30, 02:09:00,VALID,916.307,VALID,0,VALID,100,VALID,-0.101885,VALID,20.3541,VALID,30,VALID,0,
2008-04-30, 02:10:00,VALID,916.292,VALID,0,VALID,100,VALID,-0.0849042,VALID,20.3603,VALID,30,VALID,0,
2008-04-30, 02:11:00,VALID,916.272,VALID,0,VALID,100,VALID,-0.0849042,VALID,20.3474,VALID,30,VALID,0,
2008-04-30, 02:12:00,VALID,916.25,VALID,0,VALID,100,VALID,-0.152827,VALID,20.3216,VALID,30,VALID,0,
2008-04-30, 02:13:00,VALID,916.242,VALID,0,VALID,100,VALID,-0.118866,VALID,20.3087,VALID,313,VALID,0.0906613,
2008-04-30, 02:14:00,VALID,916.235,VALID,0,VALID,100,VALID,-0.101885,VALID,20.2827,VALID,282,VALID,0,
2008-04-30, 02:15:00,VALID,916.239,VALID,0,VALID,100,VALID,-0.0849042,VALID,20.2865,VALID,282,VALID,0,
2008-04-30, 02:16:00,VALID,916.243,VALID,0,VALID,100,VALID,-0.101885,VALID,20.2692,VALID,282,VALID,0,
2008-04-30, 02:17:00,VALID,916.256,VALID,0,VALID,100,VALID,-0.0849042,VALID,20.2762,VALID,282,VALID,0,
2008-04-30, 02:18:00,VALID,916.276,VALID,0,VALID,100,VALID,-0.0849042,VALID,20.276,VALID,282,VALID,0,
2008-04-30, 02:19:00,VALID,916.268,VALID,0,VALID,100,VALID,-0.101885,VALID,20.283,VALID,327,VALID,0,
2008-04-30, 02:20:00,VALID,916.264,VALID,0,VALID,100,VALID,-0.101885,VALID,20.2827,VALID,27,VALID,0,
2008-04-30, 02:21:00,VALID,916.252,VALID,0,VALID,100,VALID,-0.118866,VALID,20.2989,VALID,38,VALID,0.133557,
2008-04-30, 02:22:00,VALID,916.234,VALID,0,VALID,100,VALID,0,VALID,20.2614,VALID,38,VALID,0.758929,
2008-04-30, 02:23:00,VALID,916.224,VALID,0,VALID,100,VALID,0,VALID,20.2644,VALID,41,VALID,0.53924,
2008-04-30, 02:24:00,VALID,916.198,VALID,0,VALID,100,VALID,0,VALID,20.2517,VALID,41,VALID,0.21224,
2008-04-30, 02:25:00,VALID,916.17,VALID,0,VALID,100,VALID,0.0339617,VALID,20.2707,VALID,29,VALID,0.0929878,
2008-04-30, 02:26:00,VALID,916.144,VALID,0,VALID,100,VALID,0.0169808,VALID,20.2712,VALID,44,VALID,0.634673,
2008-04-30, 02:27:00,VALID,916.111,VALID,0,VALID,100,VALID,0.0169808,VALID,20.2255,VALID,50,VALID,0.381177,
2008-04-30, 02:28:00,VALID,916.08,VALID,0,VALID,100,VALID,0,VALID,20.216,VALID,52,VALID,0.124151,
2008-04-30, 02:29:00,VALID,916.052,VALID,0,VALID,100,VALID,0.0169808,VALID,20.2003,VALID,53,VALID,0,
2008-04-30, 02:30:00,VALID,916.033,VALID,0,VALID,100,VALID,0,VALID,20.1863,VALID,53,VALID,0,
2008-04-30, 02:31:00,VALID,916.02,VALID,0,VALID,100,VALID,0,VALID,20.1905,VALID,46,VALID,0.186719,
2008-04-30, 02:32:00,VALID,915.998,VALID,0,VALID,100,VALID,0.0339617,VALID,20.1703,VALID,44,VALID,0.209484,
2008-04-30, 02:33:00,VALID,916.002,VALID,0,VALID,100,VALID,0.0169808,VALID,20.1736,VALID,44,VALID,0.1609,
2008-04-30, 02:34:00,VALID,915.981,VALID,0,VALID,100,VALID,0.0339617,VALID,20.1641,VALID,44,VALID,0,
2008-04-30, 02:35:00,VALID,915.959,VALID,0,VALID,100,VALID,0,VALID,20.1903,VALID,44,VALID,0,
2008-04-30, 02:36:00,VALID,915.933,VALID,0,VALID,100,VALID,0.0339617,VALID,20.2028,VALID,44,VALID,0,
2008-04-30, 02:37:00,VALID,915.9,VALID,0,VALID,100,VALID,0,VALID,20.1898,VALID,44,VALID,0,
2008-04-30, 02:38:00,VALID,915.882,VALID,0,VALID,100,VALID,0.0169808,VALID,20.2065,VALID,50,VALID,0,
2008-04-30, 02:39:00,VALID,915.867,VALID,0,VALID,100,VALID,-0.0339617,VALID,20.2165,VALID,73,VALID,0,
2008-04-30, 02:40:00,VALID,915.86,VALID,0,VALID,100,VALID,0.0169808,VALID,20.1993,VALID,98,VALID,0,
2008-04-30, 02:41:00,VALID,915.861,VALID,0,VALID,100,VALID,-0.0169808,VALID,20.1795,VALID,173,VALID,0,
2008-04-30, 02:42:00,VALID,915.867,VALID,0,VALID,100,VALID,0,VALID,20.1701,VALID,173,VALID,0,
2008-04-30, 02:43:00,VALID,915.871,VALID,0,VALID,100,VALID,0.0339617,VALID,20.1701,VALID,173,VALID,0,
2008-04-30, 02:44:00,VALID,915.892,VALID,0,VALID,100,VALID,0.0679233,VALID,20.1703,VALID,173,VALID,0,
2008-04-30, 02:45:00,VALID,915.916,VALID,0,VALID,100,VALID,0.0339617,VALID,20.1765,VALID,173,VALID,0,
2008-04-30, 02:46:00,VALID,915.926,VALID,0,VALID,100,VALID,0.0509425,VALID,20.2025,VALID,173,VALID,0,
2008-04-30, 02:47:00,VALID,915.926,VALID,0,VALID,100,VALID,0,VALID,20.2195,VALID,173,VALID,0,
2008-04-30, 02:48:00,VALID,915.928,VALID,0,VALID,100,VALID,0.0169808,VALID,20.2163,VALID,173,VALID,0,
2008-04-30, 02:49:00,VALID,915.931,VALID,0,VALID,100,VALID,0.0169808,VALID,20.2055,VALID,173,VALID,0,
2008-04-30, 02:50:00,VALID,915.922,VALID,0,VALID,100,VALID,0.0509425,VALID,20.2122,VALID,173,VALID,0,
2008-04-30, 02:51:00,VALID,915.93,VALID,0,VALID,100,VALID,0.0169808,VALID,20.2187,VALID,173,VALID,0,
2008-04-30, 02:52:00,VALID,915.935,VALID,0,VALID,100,VALID,0,VALID,20.209,VALID,173,VALID,0,
2008-04-30, 02:53:00,VALID,915.961,VALID,0,VALID,100,VALID,-0.0169808,VALID,20.1963,VALID,173,VALID,0,
2008-04-30, 02:54:00,VALID,915.978,VALID,0,VALID,100,VALID,0,VALID,20.2063,VALID,173,VALID,0,
2008-04-30, 02:55:00,VALID,915.994,VALID,0,VALID,100,VALID,-0.0169808,VALID,20.2227,VALID,166,VALID,0.300391,
2008-04-30, 02:56:00,VALID,915.982,VALID,0,VALID,100,VALID,-0.0169808,VALID,20.213,VALID,163,VALID,0.00941051,
2008-04-30, 02:57:00,VALID,915.977,VALID,0,VALID,100,VALID,-0.0339617,VALID,20.1768,VALID,154,VALID,0.0457849,
2008-04-30, 02:58:00,VALID,915.963,VALID,0,VALID,100,VALID,-0.0169808,VALID,20.1678,VALID,134,VALID,0.320503,
2008-04-30, 02:59:00,VALID,915.983,VALID,0,VALID,100,VALID,-0.0509425,VALID,20.1414,VALID,160,VALID,0.598514,
2008-04-30, 03:00:00,VALID,915.996,VALID,0,VALID,100,VALID,-0.0169808,VALID,20.1354,VALID,160,VALID,0.545313,
2008-04-30, 03:01:00,VALID,916.022,VALID,0,VALID,100,VALID,-0.0169808,VALID,20.1419,VALID,152,VALID,0.403706,
2008-04-30, 03:02:00,VALID,916.041,VALID,0,VALID,100,VALID,-0.0509425,VALID,20.1381,VALID,160,VALID,0.173209,
2008-04-30, 03:03:00,VALID,916.044,VALID,0,VALID,100,VALID,-0.0169808,VALID,20.1346,VALID,172,VALID,0.528533,
2008-04-30, 03:04:00,VALID,916.049,VALID,0,VALID,100,VALID,-0.0169808,VALID,20.1321,VALID,156,VALID,0.625178,
2008-04-30, 03:05:00,VALID,916.04,VALID,0,VALID,100,VALID,-0.0339617,VALID,20.1154,VALID,156,VALID,0.301953,
2008-04-30, 03:06:00,VALID,916.04,VALID,0,VALID,100,VALID,0,VALID,20.1286,VALID,147,VALID,0.222479,
2008-04-30, 03:07:00,VALID,916.02,VALID,0,VALID,100,VALID,-0.0169808,VALID,20.1251,VALID,149,VALID,0.736374,
2008-04-30, 03:08:00,VALID,916.007,VALID,0,VALID,100,VALID,0,VALID,20.1149,VALID,135,VALID,0.476004,
2008-04-30, 03:09:00,VALID,916.008,VALID,0,VALID,100,VALID,0,VALID,20.1314,VALID,159,VALID,0.661337,
2008-04-30, 03:10:00,VALID,916.005,VALID,0,VALID,100,VALID,0,VALID,20.1081,VALID,162,VALID,0.751172,
2008-04-30, 03:11:00,VALID,915.995,VALID,0,VALID,100,VALID,0.0169808,VALID,20.1084,VALID,155,VALID,0.681818,
2008-04-30, 03:12:00,VALID,915.988,VALID,0,VALID,100,VALID,0.0169808,VALID,20.1059,VALID,153,VALID,0.184126,
2008-04-30, 03:13:00,VALID,915.984,VALID,0,VALID,100,VALID,0.0169808,VALID,20.0924,VALID,141,VALID,0.263393,
2008-04-30, 03:14:00,VALID,915.962,VALID,0,VALID,100,VALID,0.0169808,VALID,20.0957,VALID,145,VALID,0.180398,
2008-04-30, 03:15:00,VALID,915.948,VALID,0,VALID,100,VALID,0.0169808,VALID,20.1017,VALID,144,VALID,0.00109012,
2008-04-30, 03:16:00,VALID,915.927,VALID,0,VALID,100,VALID,-0.0169808,VALID,20.1049,VALID,132,VALID,0.529154,
2008-04-30, 03:17:00,VALID,915.916,VALID,0,VALID,100,VALID,-0.0169808,VALID,20.1119,VALID,130,VALID,0.580602,
2008-04-30, 03:18:00,VALID,915.915,VALID,0,VALID,100,VALID,-0.0169808,VALID,20.1181,VALID,131,VALID,0.668164,
2008-04-30, 03:19:00,VALID,915.921,VALID,0,VALID,100,VALID,0,VALID,20.1186,VALID,123,VALID,0.789807,
2008-04-30, 03:20:00,VALID,915.943,VALID,0,VALID,100,VALID,0,VALID,20.1116,VALID,128,VALID,1.08274,
2008-04-30, 03:21:00,VALID,915.944,VALID,0,VALID,100,VALID,0,VALID,20.0924,VALID,139,VALID,1.28285,
2008-04-30, 03:22:00,VALID,915.951,VALID,0,VALID,100,VALID,0.0169808,VALID,20.1022,VALID,119,VALID,0.616477,
2008-04-30, 03:23:00,VALID,915.954,VALID,0,VALID,100,VALID,0,VALID,20.1116,VALID,152,VALID,0.0338542,
2008-04-30, 03:24:00,VALID,915.943,VALID,0,VALID,100,VALID,0,VALID,20.1181,VALID,149,VALID,0.164063,
2008-04-30, 03:25:00,VALID,915.933,VALID,0,VALID,100,VALID,0,VALID,20.1049,VALID,134,VALID,0.665777,
2008-04-30, 03:26:00,VALID,915.916,VALID,0,VALID,100,VALID,0.0169808,VALID,20.1154,VALID,143,VALID,0.678089,
2008-04-30, 03:27:00,VALID,915.913,VALID,0,VALID,100,VALID,-0.0339617,VALID,20.0854,VALID,136,VALID,0.563227,
2008-04-30, 03:28:00,VALID,915.922,VALID,0,VALID,100,VALID,0,VALID,20.0757,VALID,132,VALID,0.859184,
2008-04-30, 03:29:00,VALID,915.94,VALID,0,VALID,100,VALID,0,VALID,20.0797,VALID,152,VALID,0.539789,
2008-04-30, 03:30:00,VALID,915.928,VALID,0,VALID,100,VALID,0.0169808,VALID,20.0495,VALID,130,VALID,0.830793,
2008-04-30, 03:31:00,VALID,915.917,VALID,0,VALID,100,VALID,0.0169808,VALID,20.0403,VALID,120,VALID,0.800586,
2008-04-30, 03:32:00,VALID,915.914,VALID,0,VALID,100,VALID,0,VALID,20.0238,VALID,120,VALID,0.428499,
2008-04-30, 03:33:00,VALID,915.915,VALID,0,VALID,100,VALID,0.0169808,VALID,20.0338,VALID,132,VALID,0.0501454,
2008-04-30, 03:34:00,VALID,915.913,VALID,0,VALID,100,VALID,0,VALID,20.0335,VALID,133,VALID,0,
2008-04-30, 03:35:00,VALID,915.907,VALID,0,VALID,100,VALID,0.0169808,VALID,20.0205,VALID,124,VALID,0.548064,
2008-04-30, 03:36:00,VALID,915.939,VALID,0,VALID,100,VALID,0,VALID,20.0208,VALID,124,VALID,0.499818,
2008-04-30, 03:37:00,VALID,915.959,VALID,0,VALID,100,VALID,-0.0509425,VALID,20.0018,VALID,137,VALID,0.180043,
2008-04-30, 03:38:00,VALID,915.97,VALID,0,VALID,100,VALID,-0.0679233,VALID,20.0061,VALID,141,VALID,0.987749,
2008-04-30, 03:39:00,VALID,915.977,VALID,0,VALID,100,VALID,-0.101885,VALID,19.9928,VALID,137,VALID,0.973722,
2008-04-30, 03:40:00,VALID,915.971,VALID,0,VALID,100,VALID,-0.101885,VALID,19.9896,VALID,131,VALID,0.536337,
2008-04-30, 03:41:00,VALID,915.94,VALID,0,VALID,100,VALID,-0.101885,VALID,19.9839,VALID,130,VALID,0.747582,
2008-04-30, 03:42:00,VALID,915.934,VALID,0,VALID,100,VALID,-0.101885,VALID,19.9736,VALID,137,VALID,0.357088,
2008-04-30, 03:43:00,VALID,915.913,VALID,0,VALID,100,VALID,-0.0679233,VALID,19.9704,VALID,136,VALID,0,
2008-04-30, 03:44:00,VALID,915.915,VALID,0,VALID,100,VALID,-0.101885,VALID,19.9606,VALID,125,VALID,0.0672637,
2008-04-30, 03:45:00,VALID,915.942,VALID,0,VALID,100,VALID,-0.0679233,VALID,19.9634,VALID,126,VALID,0.600142,
2008-04-30, 03:46:00,VALID,915.957,VALID,0,VALID,100,VALID,-0.0849042,VALID,19.9636,VALID,119,VALID,0.28487,
2008-04-30, 03:47:00,VALID,915.972,VALID,0,VALID,100,VALID,-0.0849042,VALID,19.9507,VALID,122,VALID,0.664971,
2008-04-30, 03:48:00,VALID,915.976,VALID,0,VALID,100,VALID,-0.101885,VALID,19.9477,VALID,104,VALID,0.270703,
2008-04-30, 03:49:00,VALID,915.985,VALID,0,VALID,100,VALID,-0.0849042,VALID,19.9639,VALID,96,VALID,0.0401786,